Location: Hengforden
(52.3167°N, 6.1333°E)
Time: 16:27:31
(UTC+00:00)

ALOS 2 - Pass Details

Date: 14 June 2025
Orbit: 630 x 632 km, 97.9° (Epoch: 20 July)

Event Time Altitude Azimuth Distance (km) Brightness Sun altitude
Exits shadow 21:35:32 - 115° (ESE) 2,237 4.9 -9.9°
Reaches altitude 10° 21:36:12 10° 110° (ESE) 2,019 4.8 -10.0°
Maximum altitude 21:39:34 22° 60° (ENE) 1,396 4.4 -10.2°
Drops below altitude 10° 21:42:56 10° 10° (N) 2,029 6.1 -10.5°
Sets 21:45:32 0° 355° (N) 2,942 7.5 -10.6°
